Location: Mascot Post Office (historical)
(40.2645°N, 99.5462°W)
Time: 00:00:18
(UTC+00:00)

NOSS 3-4 (C) - Pass Details

Date: 23 October 2020
Orbit: 884 x 1328 km, 63.4° (Epoch: 28 November)

Event Time Altitude Azimuth Distance (km) Brightness Sun altitude
Rises 00:44:53 0° 327° (NNW) 3,704 6.9 -11.6°
Reaches altitude 10° 00:50:14 10° 4° (N) 2,875 5.9 -12.7°
Maximum altitude 00:51:47 11° 17° (NNE) 2,854 5.7 -13.0°
Drops below altitude 10° 00:53:22 10° 30° (NNE) 2,949 5.7 -13.3°
Enters shadow 00:55:21 - 45° (NE) 3,212 5.8 -13.6°
